Connellys Springs, NC

6:26 PM EST on February 09, 2016 (GMT -0500)
Morganton-Lenoir

Weather History for KMRN - April, 2013

Change the Weather History Date:

Monday, April 15, 2013

  Actual Average (KHKY) Record (KHKY)
Temperature  
Mean Temperature 57 °F -  
Max Temperature 60 °F 69 °F 88 °F (1976)
Min Temperature 54 °F 47 °F 28 °F (1950)
Degree Days  
Heating Degree Days 8    
Growing Degree Days 7 (Base 50)    
Moisture  
Dew Point 55 °F    
Average Humidity 93    
Maximum Humidity 100    
Minimum Humidity 68    
Precipitation  
Precipitation 0.34 in - - ()
Sea Level Pressure  
Sea Level Pressure 30.15 in    
Wind  
Wind Speed 4 mph (NNE)    
Max Wind Speed 9 mph    
Max Gust Speed -    
Visibility 8 miles    
Events Rain    
Averages and records for this station are not official NWS values.
T = Trace of Precipitation, MM = Missing Value Source: NWS Daily Summary

Daily Weather History Graph

Daily Weather History Graph

Search for Another Location

Airport or City:

Trip Planner

Search our weather history database for the weather conditions in past years. The results will help you decide how hot, cold, wet, or windy it might be!

Date:

Astronomy

Apr. 15, 2013 Rise Set
Actual Time 6:53 AM EDT 8:00 PM EDT
Civil Twilight 6:26 AM EDT 8:26 PM EDT
Nautical Twilight 5:55 AM EDT 8:57 PM EDT
Astronomical Twilight 5:23 AM EDT 9:30 PM EDT
Moon 10:23 AM EDT (4/15) 12:05 AM EDT (4/15)
Length of Visible Light 13h 59m
Length of Day
13h 06m
Waxing Crescent, 24% of the Moon is Illuminated
Apr 15
Waxing Crescent
Apr 18
First Quarter
Apr 25
Full
May 2
Last Quarter
May 9
New

Hourly Weather History & Observations

Time (EDT) Temp. Dew Point Humidity Pressure Visibility Wind Dir Wind Speed Gust Speed Precip Events Conditions
12:15 AM 60.1 °F 49.5 °F 68% 30.07 in 10.0 mi SSE 8.1 mph - N/A Rain Light Rain
12:35 AM 59.5 °F 49.6 °F 70% 30.08 in 10.0 mi South 3.5 mph - N/A Rain Rain
12:55 AM 56.7 °F 52.7 °F 87% 30.08 in 10.0 mi Calm Calm - 0.01 in Rain Light Rain
1:15 AM 55.8 °F 53.8 °F 93% 30.07 in 10.0 mi ESE 3.5 mph - 0.01 in Rain Light Rain
1:35 AM 55.9 °F 52.5 °F 88% 30.07 in 7.0 mi Calm Calm - 0.02 in   Drizzle
1:55 AM 54.9 °F 53.1 °F 94% 30.07 in 5.0 mi Calm Calm - 0.08 in Rain Heavy Rain
2:15 AM 54.7 °F 54.0 °F 97% 30.08 in 5.0 mi NW 3.5 mph - 0.03 in Rain Rain
2:35 AM 54.5 °F 54.1 °F 99% 30.07 in 5.0 mi North 4.6 mph - 0.07 in Rain Rain
2:55 AM 54.3 °F 54.3 °F 100% 30.07 in 5.0 mi North 4.6 mph - 0.09 in Rain Rain
3:15 AM 54.1 °F 54.1 °F 100% 30.06 in 5.0 mi NNE 3.5 mph - 0.02 in Rain Rain
3:35 AM 54.0 °F 54.0 °F 100% 30.05 in 5.0 mi NNE 4.6 mph - 0.03 in   Drizzle
3:55 AM 54.0 °F 54.0 °F 100% 30.06 in 7.0 mi Calm Calm - 0.03 in Rain Light Rain
4:15 AM 54.1 °F 54.1 °F 100% 30.06 in 5.0 mi North 3.5 mph - N/A   Drizzle
4:35 AM 54.1 °F 54.1 °F 100% 30.06 in 7.0 mi NNE 3.5 mph - 0.01 in   Drizzle
4:55 AM 54.5 °F 54.5 °F 100% 30.07 in 7.0 mi NNE 4.6 mph - 0.02 in   Drizzle
5:15 AM 54.3 °F 54.3 °F 100% 30.07 in 5.0 mi NNE 5.8 mph - 0.02 in Rain Rain
5:35 AM 54.1 °F 54.1 °F 100% 30.07 in 5.0 mi NNE 3.5 mph - 0.04 in   Drizzle
5:55 AM 54.1 °F 54.1 °F 100% 30.07 in 7.0 mi NNE 3.5 mph - 0.04 in   Light Drizzle
6:15 AM 54.3 °F 54.3 °F 100% 30.07 in 5.0 mi Calm Calm - N/A   Overcast
6:35 AM 54.1 °F 54.1 °F 100% 30.08 in 5.0 mi North 3.5 mph - 0.01 in Rain Rain
6:55 AM 54.1 °F 54.1 °F 100% 30.08 in 4.0 mi Calm Calm - 0.02 in   Drizzle
7:15 AM 54.5 °F 54.5 °F 100% 30.10 in 5.0 mi North 3.5 mph - N/A   Overcast
7:35 AM 54.5 °F 54.5 °F 100% 30.10 in 3.0 mi NNE 4.6 mph - 0.01 in   Drizzle
7:55 AM 54.5 °F 54.5 °F 100% 30.10 in 4.0 mi NNE 5.8 mph - 0.02 in   Light Drizzle
8:15 AM 54.5 °F 54.5 °F 100% 30.11 in 7.0 mi NNE 4.6 mph - N/A Rain Light Rain
8:35 AM 54.5 °F 54.5 °F 100% 30.12 in 4.0 mi North 3.5 mph - 0.01 in   Light Drizzle
8:55 AM 54.5 °F 54.5 °F 100% 30.13 in 3.0 mi NNW 3.5 mph - 0.01 in   Drizzle
9:15 AM 54.5 °F 54.5 °F 100% 30.13 in 3.0 mi North 5.8 mph - 0.01 in   Drizzle
9:35 AM 54.7 °F 54.7 °F 100% 30.14 in 3.0 mi North 5.8 mph - 0.02 in   Light Drizzle
9:55 AM 54.7 °F 54.7 °F 100% 30.14 in 5.0 mi North 6.9 mph - 0.02 in   Overcast
10:15 AM 55.0 °F 54.9 °F 99% 30.14 in 10.0 mi North 5.8 mph - N/A   Overcast
10:35 AM 55.8 °F 55.4 °F 99% 30.14 in 10.0 mi NNE 6.9 mph - N/A   Overcast
10:55 AM 56.3 °F 55.4 °F 97% 30.15 in 10.0 mi North 5.8 mph - N/A   Overcast
11:15 AM 56.5 °F 55.0 °F 95% 30.15 in 10.0 mi NNE 6.9 mph - N/A   Overcast
11:35 AM 56.7 °F 54.5 °F 92% 30.15 in 10.0 mi NNE 9.2 mph - N/A   Overcast
11:55 AM 57.2 °F 54.5 °F 91% 30.15 in 10.0 mi NNE 5.8 mph - N/A   Overcast
12:15 PM 57.7 °F 54.1 °F 88% 30.16 in 10.0 mi NNE 6.9 mph - N/A   Overcast
12:35 PM 58.3 °F 54.5 °F 87% 30.16 in 10.0 mi NNE 5.8 mph - N/A   Overcast
12:55 PM 58.1 °F 54.3 °F 87% 30.17 in 10.0 mi North 6.9 mph - N/A   Overcast
1:15 PM 58.3 °F 54.3 °F 87% 30.17 in 10.0 mi NNE 5.8 mph - N/A   Overcast
1:35 PM 58.8 °F 55.0 °F 87% 30.17 in 10.0 mi NE 4.6 mph - N/A   Overcast
1:55 PM 58.5 °F 55.4 °F 90% 30.17 in 7.0 mi NNE 4.6 mph - N/A   Overcast
2:15 PM 59.0 °F 55.4 °F 88% 30.18 in 10.0 mi NNE 6.9 mph - N/A   Overcast
2:35 PM 59.2 °F 55.0 °F 86% 30.18 in 10.0 mi NNE 3.5 mph - N/A   Overcast
2:55 PM 59.9 °F 54.9 °F 83% 30.18 in 10.0 mi NNE 6.9 mph - N/A   Overcast
3:15 PM 59.0 °F 54.7 °F 86% 30.18 in 10.0 mi NNE 4.6 mph - N/A   Overcast
3:35 PM 58.8 °F 54.9 °F 87% 30.18 in 10.0 mi North 4.6 mph - N/A   Overcast
3:55 PM 58.5 °F 54.7 °F 87% 30.18 in 10.0 mi North 6.9 mph - N/A   Overcast
4:15 PM 58.5 °F 55.2 °F 89% 30.18 in 10.0 mi NNE 5.8 mph - N/A   Overcast
4:35 PM 58.6 °F 54.7 °F 87% 30.17 in 10.0 mi North 4.6 mph - N/A   Overcast
4:55 PM 58.5 °F 54.7 °F 87% 30.18 in 10.0 mi NNE 5.8 mph - N/A   Overcast
5:15 PM 58.6 °F 54.7 °F 87% 30.18 in 10.0 mi North 4.6 mph - N/A   Overcast
5:35 PM 58.6 °F 54.5 °F 86% 30.19 in 10.0 mi NNE 3.5 mph - N/A   Overcast
5:55 PM 58.8 °F 54.9 °F 87% 30.19 in 10.0 mi North 4.6 mph - N/A   Overcast
6:15 PM 58.6 °F 54.7 °F 87% 30.20 in 10.0 mi North 3.5 mph - N/A   Overcast
6:35 PM 59.2 °F 55.2 °F 87% 30.20 in 10.0 mi North 4.6 mph - N/A   Overcast
6:55 PM 58.8 °F 55.0 °F 87% 30.20 in 10.0 mi NNE 3.5 mph - N/A   Overcast
7:15 PM 58.5 °F 55.0 °F 88% 30.20 in 10.0 mi North 3.5 mph - N/A   Overcast
7:35 PM 58.5 °F 55.4 °F 90% 30.21 in 10.0 mi North 3.5 mph - N/A   Overcast
7:55 PM 58.1 °F 55.4 °F 91% 30.22 in 10.0 mi NNE 4.6 mph - N/A   Overcast
8:15 PM 57.9 °F 55.4 °F 91% 30.22 in 10.0 mi North 3.5 mph - N/A   Overcast
8:35 PM 57.2 °F 55.0 °F 92% 30.22 in 10.0 mi Calm Calm - N/A   Mostly Cloudy
8:55 PM 56.3 °F 55.0 °F 96% 30.23 in 10.0 mi NNE 3.5 mph - N/A   Scattered Clouds
9:15 PM 56.3 °F 55.4 °F 97% 30.24 in 10.0 mi North 4.6 mph - N/A   Mostly Cloudy
9:35 PM 56.8 °F 55.8 °F 96% 30.26 in 10.0 mi North 4.6 mph - N/A   Overcast
9:55 PM 56.7 °F 55.6 °F 96% 30.26 in 10.0 mi NNW 4.6 mph - N/A   Overcast
10:15 PM 56.7 °F 55.6 °F 96% 30.27 in 10.0 mi NNW 3.5 mph - N/A   Overcast
10:35 PM 56.7 °F 55.8 °F 97% 30.27 in 10.0 mi North 3.5 mph - N/A   Overcast
10:55 PM 56.7 °F 55.8 °F 97% 30.27 in 10.0 mi North 3.5 mph - N/A   Overcast
11:15 PM 56.7 °F 55.9 °F 97% 30.27 in 7.0 mi North 3.5 mph - N/A   Overcast
11:35 PM 56.8 °F 55.9 °F 97% 30.27 in 7.0 mi Calm Calm - N/A   Overcast
11:55 PM 56.8 °F 56.3 °F 98% 30.27 in 5.0 mi North 3.5 mph - N/A Rain Light Rain